Overview Statistics Trail Chart Weather Telemetry Raw packets
 

This is the latest recevied weather packets stored in our database for station/object EFHK. If no packets are shown the sender has not sent any weather packets the latest 10 day(s).

<< 52 53 54 55 56 57 58 >>
Time Temp. Humidity Pressure Rain* Wind** Luminosity Snow
1787766797 15° C 93% 1025 hPa - - - -
1787766199 16.67° C 82% 1025 hPa - - - -
1787765601 16.67° C 82% 1025 hPa - - - -
1787765001 16.67° C 82% 1025 hPa - - - -
1787764399 18.89° C 68% 1025 hPa - - - -
1787763801 18.89° C 68% 1025 hPa - - - -
1787763202 18.89° C 68% 1025 hPa - - - -
1787762599 20° C 60% 1025 hPa - - - -
1787761999 20° C 60% 1025 hPa - - - -
1787761402 20° C 60% 1025 hPa - - - -
1787760799 20° C 64% 1025 hPa - - - -
1787760200 20° C 64% 1025 hPa - - - -
1787759607 20° C 64% 1025 hPa - - - -
1787759011 20° C 64% 1012.9 hPa - - - -
1787758404 20° C 64% 1012.9 hPa - - - -
1787757807 20° C 64% 1025 hPa - - - -
1787757204 18.89° C 63% 1025 hPa - - - -
1787756599 18.89° C 63% 1025 hPa - - - -
1787756001 18.89° C 63% 1013.2 hPa - - - -
1787755401 18.89° C 68% 1013.2 hPa - - - -
1787754801 18.89° C 68% 1013.2 hPa - - - -
1787754201 18.89° C 68% 1013.2 hPa - - - -
1787753601 18.89° C 63% 1013.2 hPa - - - -
1787753001 18.89° C 63% 1013.5 hPa - - - -
1787752401 18.89° C 63% 1025 hPa - - - -

* Rain since midnight (hover to see other rain measurements)
** Current wind speed in m/s (hover to see current wind gust speed)